Home   Weather   Bend   Past weeks

Flag for USA Past Weather in Bend, Oregon, USA — Yesterday and Last 2 Weeks

Now
33 °F

Light snow. Overcast.


Feels Like: 29 °F
Forecast: 23 / 33 °F
Wind: 5 mph from Southwest

Location: Roberts Field Airport

Current Time: Jan 23, 2017 at 3:03:33 am

Latest Report: Jan 23, 2017 at 2:15 am


Visibility: 8 mi

Pressure: 29.57 "Hg (25.77 "Hg at 1103m altitude)

Humidity: 61%

Dew Point: 21 °F

Location of BendLocation

Past Weather in Bend — Graph

°F

Bend Temperature Yesterday

Maximum temperature yesterday: 42 °F (at 3:56 pm)
Minimum temperature yesterday: 28 °F (at 8:56 pm)
Average temperature yesterday: 37 °F

High & Low Weather Summary for the Past Weeks

 TemperatureHumidityPressure
High44 °F (Jan 17, 9:56 pm)92% (Jan 10, 2:56 pm)30.59 "Hg (Jan 10, 2:56 pm)
Low-7 °F (Jan 15, 7:56 am)33% (Jan 22, 3:56 pm)29.07 "Hg (Jan 20, 12:56 pm)
Average23 °F74%29.88 "Hg
* Reported Jan 8 1:56 am — Jan 23 1:56 am, Bend, Weather by CustomWeather, © 2017

Note: Actual official high and low records may vary slightly from our data, if they occured in-between our weather recording intervals... More about our weather records

Advertising

Bend Weather History for the Previous 24 Hours

Scroll right to see more
 ConditionsComfort  
Time TempWeatherWind HumidityBarometerVisibility
1:56 am
Mon, Jan 23
33 °FOvercast.3 mph58%29.59 "Hg10 mi
12:56 am32 °FOvercast.6 mph59%29.57 "Hg10 mi
11:56 pm
Sun, Jan 22
32 °FOvercast.8 mph59%29.58 "Hg10 mi
10:56 pm31 °FOvercast.7 mph61%29.57 "Hg10 mi
9:56 pm31 °FOvercast.7 mph59%29.57 "Hg10 mi
8:56 pm28 °FClear.No wind61%29.56 "Hg10 mi
7:56 pm32 °FClear.3 mph52%29.54 "Hg10 mi
6:56 pm33 °FClear.3 mph48%29.55 "Hg10 mi
5:56 pm31 °FClear.No wind64%29.55 "Hg10 mi
4:56 pm35 °FSunny.No wind54%29.54 "Hg10 mi
3:56 pm42 °FSunny.No wind33%29.52 "Hg10 mi
2:56 pm41 °FSunny.16 mph35%29.52 "Hg10 mi
1:56 pm41 °FSunny.12 mph36%29.52 "Hg10 mi
12:56 pm41 °FSunny.14 mph45%29.51 "Hg10 mi
11:56 am40 °FPassing clouds.12 mph47%29.51 "Hg10 mi
10:56 am40 °FBroken clouds.9 mph58%29.51 "Hg10 mi
9:56 am37 °FOvercast.7 mph76%29.51 "Hg10 mi
9:24 am36 °FCloudy.8 mph79%29.47 "Hg10 mi
9:02 am35 °FLight snow. Mostly cloudy.13 mph78%29.45 "Hg2 mi
8:56 am37 °FLight snow. Mostly cloudy.12 mph70%29.49 "Hg6 mi
7:56 am38 °FPartly sunny.7 mph63%29.44 "Hg10 mi
6:56 am39 °FPassing clouds.12 mph60%29.43 "Hg10 mi
5:56 am40 °FOvercast.14 mph53%29.43 "Hg10 mi
4:56 am41 °FMostly cloudy.20 mph51%29.44 "Hg10 mi
3:56 am40 °FPassing clouds.13 mph58%29.48 "Hg10 mi
Weather by CustomWeather, © 2017

See weather overviewHow to use our weather pages